Location: EverStaR Observatory
(38.9036°N, 94.8303°W)
Time: 02:26:15
(UTC-05:00)

N. Korean satellite - Visible Passes

Search period start: 21 March 2019 00:00
Search period end: 31 March 2019 00:00
Orbit: 456 x 510 km, 97.2° (Epoch: 20 March)

Date Brightness Start Highest point End Pass type
(mag) Time Alt. Az. Time Alt. Az. Time Alt. Az.
21 Mar 10.2 06:26:33 10° ENE 06:27:51 12° E 06:29:09 10° ESE visible
24 Mar 9.7 06:44:11 10° NE 06:46:56 20° E 06:49:41 10° SE visible
28 Mar 9.8 06:38:29 10° NE 06:41:00 18° E 06:43:32 10° SE visible
